Location: Barcelona
(41.3830°N, 2.1830°E)
Time: 17:09:20
(UTC+02:00)

ISS - Visible Passes

Search period start: 24 September 2020 00:00
Search period end: 04 October 2020 00:00
Orbit: 419 x 420 km, 51.6° (Epoch: 24 September)

Date Brightness Start Highest point End Pass type
(mag) Time Alt. Az. Time Alt. Az. Time Alt. Az.
24 Sep -1.8 20:06:57 10° W 20:09:50 26° NNW 20:12:44 10° NE visible
24 Sep -1.2 21:45:34 10° NW 21:47:31 14° N 21:47:47 14° N visible
25 Sep -1.2 20:57:48 10° NW 20:59:52 15° N 21:01:57 10° NNE visible
26 Sep -1.3 20:09:55 10° NW 20:12:14 17° NNW 20:14:33 10° NNE visible
26 Sep -1.2 21:47:55 10° NNW 21:49:29 15° N 21:49:29 15° N visible
27 Sep -1.3 21:00:25 10° NNW 21:02:23 15° N 21:03:50 12° NNE visible
28 Sep -1.2 20:12:46 10° NW 20:14:42 14° N 20:16:39 10° NNE visible
28 Sep -1.2 21:49:45 10° NW 21:51:08 17° NNW 21:51:08 17° NNW visible
29 Sep -1.7 21:02:25 10° NNW 21:04:49 18° NNE 21:05:29 17° NNE visible
30 Sep -1.5 20:15:00 10° NNW 20:17:08 16° N 20:19:17 10° NE visible
30 Sep -1.3 21:51:26 10° NW 21:52:48 21° NNW 21:52:48 21° NNW visible
01 Oct -2.5 21:04:06 10° NW 21:07:05 28° NNE 21:07:11 28° NNE visible
02 Oct -2.0 20:16:45 10° NW 20:19:27 22° NNE 20:21:37 13° ENE visible
02 Oct -1.3 21:53:12 10° WNW 21:54:35 22° WNW 21:54:35 22° WNW visible
03 Oct -3.7 21:05:45 10° NW 21:09:05 61° NNE 21:09:05 61° NNE visible
